Terminal Aerodrome Forecast
Issued by NWS

Current Version | Previous Version | Graphics & Text | Print | Product List | Glossary On
Versions: 1 2 3 4 5 6 7 8 9 10 11 12 13 14 15 16
000
FTUS41 KPBZ 211135
TAFHLG
TAF
KHLG 211135Z 2112/2212 16010KT P6SM BKN120
     FM211600 17012KT P6SM -SHRA BKN050
     FM212100 17008KT P6SM BKN015
     FM220200 18008KT 3SM SHRA OVC015
     FM220700 28010KT P6SM OVC015=

USA.gov is the U.S. government's official web portal to all federal, state and local government web resources and services.